W5URF-13 Weather Reports


time (UTC)temp
F
wind
direction
speed
knots
gust
knots
rain 1hr
in
rain 24hr
in
rain mn
in
humidity
%
barometer
mb
20260906194510 103 146 0.0 1.7 0.00 0.00 0.00 35 1012.5
20260906193009 103 123 0.0 2.6 0.00 0.00 0.00 34 1012.5
20260906191507 103 230 0.9 3.5 0.00 0.00 0.00 33 1012.8
20260906190006 103 161 0.9 6.1 0.00 0.00 0.00 33 1012.9
20260906184505 102 85 0.0 4.3 0.00 0.00 0.00 35 1013.0
20260906183006 103 168 0.0 0.0 0.00 0.00 0.00 35 1013.4
20260906181600 102 213 0.0 0.0 0.00 0.00 0.00 37 1013.6
20260906180112 101 98 0.0 3.5 0.00 0.00 0.00 36 1014.0
20260906174556 101 49 0.0 2.6 0.00 0.00 0.00 37 1014.3
20260906173051 99 107 0.0 0.9 0.00 0.00 0.00 41 1014.5
20260906171549 99 50 0.0 0.9 0.00 0.00 0.00 43 1014.7
20260906170111 97 34 0.0 0.0 0.00 0.00 0.00 43 1014.9
20260906164541 95 40 0.0 1.7 0.00 0.00 0.00 48 1015.1
20260906163037 94 349 0.0 0.9 0.00 0.00 0.00 50 1015.2
20260906161534 92 13 0.0 2.6 0.00 0.00 0.00 54 1015.2
20260906160033 91 39 0.0 1.7 0.00 0.00 0.00 56 1015.3
20260906154531 92 108 0.0 0.9 0.00 0.00 0.00 54 1015.2
20260906153027 90 127 0.0 0.0 0.00 0.00 0.00 57 1015.2
20260906151524 88 112 0.0 0.0 0.00 0.00 0.00 61 1015.1
20260906150019 86 108 0.0 0.0 0.00 0.00 0.00 62 1015.0
20260906144525 85 117 0.0 0.0 0.00 0.00 0.00 65 1015.0
20260906143016 84 119 0.0 0.0 0.00 0.00 0.00 66 1014.9
20260906141515 84 119 0.0 0.0 0.00 0.00 0.00 67 1014.9
20260906140014 82 120 0.0 0.0 0.00 0.00 0.00 70 1014.7
20260906134522 81 120 0.0 0.0 0.00 0.00 0.00 71 1014.6
20260906133015 80 117 0.0 0.0 0.00 0.00 0.00 72 1014.7
20260906131512 80 117 0.0 0.0 0.00 0.00 0.00 73 1014.7
20260906130011 79 117 0.0 0.0 0.00 0.00 0.00 74 1014.7
20260906124513 79 117 0.0 0.0 0.00 0.00 0.00 74 1014.5
20260906123008 79 117 0.0 0.0 0.00 0.00 0.00 73 1014.4
20260906121506 78 116 0.0 0.0 0.00 0.00 0.00 72 1014.3
20260906120005 78 116 0.0 0.0 0.00 0.00 0.00 71 1014.0
20260906114501 79 116 0.0 0.0 0.00 0.00 0.00 71 1013.9
20260906113058 80 116 0.0 0.0 0.00 0.00 0.00 69 1013.7
20260906111556 80 116 0.0 0.0 0.00 0.00 0.00 68 1013.6
20260906110055 80 114 0.0 0.0 0.00 0.00 0.00 67 1013.5
20260906104554 81 110 0.0 0.0 0.00 0.00 0.00 67 1013.5
20260906103155 81 110 0.0 0.0 0.00 0.00 0.00 66 1013.4
20260906101552 81 110 0.0 0.0 0.00 0.00 0.00 67 1013.5
20260906100053 80 110 0.0 0.0 0.00 0.00 0.00 67 1013.4
20260906094602 80 110 0.0 0.0 0.00 0.00 0.00 69 1013.5
20260906093148 80 110 0.0 0.0 0.00 0.00 0.00 71 1013.3
20260906091558 80 110 0.0 0.0 0.00 0.00 0.00 69 1013.3
20260906090042 81 110 0.0 0.0 0.00 0.00 0.00 68 1013.1
20260906084540 81 110 0.0 0.0 0.00 0.00 0.00 68 1013.1
20260906083037 82 110 0.0 0.0 0.00 0.00 0.00 67 1012.9
20260906081536 82 110 0.0 0.0 0.00 0.00 0.00 65 1012.9
20260906080033 83 110 0.0 0.0 0.00 0.00 0.00 65 1013.0
20260906074530 83 110 0.0 0.0 0.00 0.00 0.00 63 1012.8
20260906073027 84 110 0.0 0.0 0.00 0.00 0.00 60 1012.7
20260906071526 84 110 0.0 0.0 0.00 0.00 0.00 61 1013.0
20260906070024 84 110 0.0 0.0 0.00 0.00 0.00 58 1013.0
20260906064522 85 110 0.0 0.0 0.00 0.00 0.00 57 1012.9
20260906063019 85 110 0.0 0.0 0.00 0.00 0.00 55 1012.9
20260906061518 85 110 0.0 0.0 0.00 0.00 0.00 55 1012.9
20260906060017 85 110 0.0 0.0 0.00 0.00 0.00 55 1013.0
20260906054516 85 110 0.0 0.0 0.00 0.00 0.00 56 1013.0
20260906053013 85 110 0.0 0.0 0.00 0.00 0.00 56 1012.9
20260906051512 86 110 0.0 0.0 0.00 0.00 0.00 57 1012.8
20260906050010 86 110 0.0 0.0 0.00 0.00 0.00 57 1012.8
20260906044509 88 234 0.0 0.0 0.00 0.00 0.00 53 1012.8
20260906043008 88 234 0.0 0.0 0.00 0.00 0.00 52 1012.6
20260906041508 88 234 0.0 0.0 0.00 0.00 0.00 53 1012.7
20260906040009 88 235 0.0 0.0 0.00 0.00 0.00 52 1012.7
20260906034507 88 234 0.0 0.0 0.00 0.00 0.00 53 1012.7
20260906033017 89 235 0.0 0.0 0.00 0.00 0.00 52 1012.5
20260906031505 89 235 0.0 0.0 0.00 0.00 0.00 51 1012.6
20260906030005 89 235 0.0 0.0 0.00 0.00 0.00 51 1012.7
20260906024504 89 235 0.0 0.0 0.00 0.00 0.00 51 1012.5
20260906023003 90 235 0.0 0.0 0.00 0.00 0.00 50 1012.2
20260906021503 90 233 0.0 0.0 0.00 0.00 0.00 48 1011.9
20260906020004 90 233 0.0 0.0 0.00 0.00 0.00 49 1011.8
20260906014503 91 233 0.0 0.0 0.00 0.00 0.00 48 1011.8
20260906013110 92 233 0.0 0.0 0.00 0.00 0.00 46 1011.6
20260906011607 92 233 0.0 0.0 0.00 0.00 0.00 46 1011.5
20260906010100 92 233 0.0 0.0 0.00 0.00 0.00 45 1011.4
20260906004609 93 233 0.0 0.0 0.00 0.00 0.00 44 1011.3
20260906003103 93 233 0.0 0.0 0.00 0.00 0.00 43 1011.3
20260906001557 94 233 0.0 0.9 0.00 0.00 0.00 42 1011.3
20260906000059 95 232 0.0 0.0 0.00 0.00 0.00 40 1011.3
20260905234557 96 143 0.0 0.9 0.00 0.00 0.00 40 1011.2
20260905233055 96 238 0.0 1.7 0.00 0.00 0.00 42 1011.0
20260905231555 97 167 0.0 0.9 0.00 0.00 0.00 40 1011.0
20260905230055 97 122 0.0 1.7 0.00 0.00 0.00 41 1010.9
20260905224555 97 91 0.0 0.0 0.00 0.00 0.00 40 1011.0
20260905223052 97 143 0.0 2.6 0.00 0.00 0.00 40 1011.1
20260905221552 98 233 0.0 2.6 0.00 0.00 0.00 40 1011.1
20260905220049 98 131 0.0 3.5 0.00 0.00 0.00 40 1011.2
20260905214548 98 176 0.0 0.0 0.00 0.00 0.00 40 1011.4
20260905213045 98 111 0.0 3.5 0.00 0.00 0.00 39 1011.7
20260905211551 99 167 0.9 3.5 0.00 0.00 0.00 39 1011.7
20260905210044 99 129 0.0 2.6 0.00 0.00 0.00 39 1012.0
20260905204544 100 160 0.0 6.1 0.00 0.00 0.00 38 1012.2
20260905203040 100 36 0.0 2.6 0.00 0.00 0.00 37 1012.5
20260905201535 100 122 0.0 3.5 0.00 0.00 0.00 38 1012.8
20260905200038 100 250 0.0 3.5 0.00 0.00 0.00 39 1013.1